Weather History for La Crosse, WI

Change the Weather History Date:

Sunday, September 16, 2012

  Actual Average Record
Temperature  
Mean Temperature 67 °F 63 °F  
Max Temperature 78 °F 73 °F 94 °F (1931)
Min Temperature 55 °F 52 °F 34 °F (1916)
Degree Days  
Heating Degree Days 0 4  
Month to date heating degree days 15 42  
Since 1 July heating degree days 24 62  
Cooling Degree Days 2 2  
Month to date cooling degree days 59 56  
Year to date cooling degree days 1081 756  
Growing Degree Days 16 (Base 50)    
Moisture  
Dew Point 52 °F    
Average Humidity 60    
Maximum Humidity 73    
Minimum Humidity 47    
Precipitation  
Precipitation 0.00 in 0.11 in 2.85 in (1992)
Month to date precipitation 0.98 1.96  
Year to date precipitation 19.97 25.92  
Snow  
Snow 0.00 in 0.00 in 0.00 in (2002)
Month to date snowfall 0.0 0.0  
Since 1 July snowfall 0.0 0.0  
Since 1 September snowfall 0.0 0.0  
Snow Depth 0.00 in    
Sea Level Pressure  
Sea Level Pressure 29.95 in    
Wind  
Wind Speed 9 mph (South)    
Max Wind Speed 21 mph    
Max Gust Speed 25 mph    
Visibility 10 miles    
Events      
T = Trace of Precipitation, MM = Missing Value Source: NWS Daily Summary

Daily Weather History Graph

Daily Weather History Graph

Search for Another Location

Airport:

Trip Planner

Search our weather history database for the weather conditions in past years. The results will help you decide how hot, cold, wet, or windy it might be!

Date:

Astronomy

Sep. 16, 2012 Rise Set
Actual Time 6:45 AM CDT 7:12 PM CDT
Civil Twilight 6:17 AM CDT 7:41 PM CDT
Nautical Twilight 5:42 AM CDT 8:15 PM CDT
Astronomical Twilight 5:07 AM CDT 8:50 PM CDT
Moon 7:28 AM CDT (9/16) 7:13 PM CDT (9/16)
Length of Visible Light 13h 24m
Length of Day
12h 26m
New Moon, 0% of the Moon is Illuminated
Sep 16
New Moon
Sep 22
First Quarter
Sep 29
Full
Oct 8
Last Quarter
Oct 15
New

Hourly Weather History & Observations

Time (CDT) Temp. Dew Point Humidity Pressure Visibility Wind Dir Wind Speed Gust Speed Precip Events Conditions
12:53 AM 63.0 °F 46.9 °F 56% 30.03 in 10.0 mi South 6.9 mph - N/A   Clear
1:53 AM 61.0 °F 46.0 °F 58% 30.03 in 10.0 mi SSE 8.1 mph - N/A   Clear
2:53 AM 60.8 °F 44.6 °F 55% 30.04 in 10.0 mi South 3.5 mph - N/A   Clear
3:53 AM 60.1 °F 46.0 °F 60% 30.01 in 10.0 mi South 6.9 mph - N/A   Clear
4:53 AM 60.1 °F 46.0 °F 60% 30.01 in 10.0 mi South 6.9 mph - N/A   Clear
5:53 AM 57.9 °F 46.9 °F 67% 30.02 in 10.0 mi SSE 6.9 mph - N/A   Clear
6:53 AM 55.9 °F 46.9 °F 72% 30.02 in 10.0 mi SSE 6.9 mph - N/A   Clear
7:53 AM 57.9 °F 48.0 °F 70% 30.03 in 10.0 mi SSE 3.5 mph - N/A   Clear
8:53 AM 61.0 °F 48.0 °F 62% 30.03 in 10.0 mi South 5.8 mph - N/A   Clear
9:53 AM 64.0 °F 48.9 °F 58% 30.01 in 10.0 mi South 6.9 mph - N/A   Clear
10:53 AM 68.0 °F 51.1 °F 55% 29.99 in 10.0 mi South 9.2 mph - N/A   Clear
11:53 AM 71.1 °F 54.0 °F 55% 29.98 in 10.0 mi South 11.5 mph - N/A   Clear
12:53 PM 73.9 °F 55.0 °F 52% 29.95 in 10.0 mi South 11.5 mph - N/A   Clear
1:53 PM 77.0 °F 55.9 °F 48% 29.92 in 10.0 mi SSW 17.3 mph - N/A   Clear
2:53 PM 77.0 °F 55.9 °F 48% 29.89 in 10.0 mi SSW 15.0 mph 25.3 mph N/A   Clear
3:53 PM 77.0 °F 55.9 °F 48% 29.88 in 10.0 mi SSW 13.8 mph 21.9 mph N/A   Scattered Clouds
4:53 PM 77.0 °F 57.0 °F 50% 29.88 in 10.0 mi South 10.4 mph - N/A   Mostly Cloudy
5:53 PM 75.0 °F 57.0 °F 53% 29.87 in 10.0 mi South 9.2 mph - N/A   Clear
6:53 PM 73.0 °F 55.0 °F 53% 29.87 in 10.0 mi South 9.2 mph - N/A   Clear
7:53 PM 71.1 °F 54.0 °F 55% 29.87 in 10.0 mi South 11.5 mph - N/A   Clear
8:53 PM 69.1 °F 53.1 °F 57% 29.88 in 10.0 mi South 11.5 mph - N/A   Clear
9:53 PM 66.9 °F 54.0 °F 63% 29.88 in 10.0 mi South 11.5 mph - N/A   Clear
10:53 PM 66.0 °F 55.0 °F 68% 29.88 in 10.0 mi South 6.9 mph - N/A   Overcast
11:53 PM 64.9 °F 55.0 °F 70% 29.87 in 10.0 mi SE 4.6 mph - N/A   Overcast